Starlink 11671

operational
NORAD ID: 64319 Int'l Des: 2025-124 Owner: SPXS Country: US Constellation: starlink
LEOCIRCULAR

Starlink 11671について

説明を読み込み中...

リアルタイム位置

3D地球を読み込み中...

次回通過

高度履歴

Altitude vs Time

uPlot chart will show altitude changes over time

軌道要素

1 64319U 25124C 26095.37895411 .00300229 00000-0 22437-2 0 9993
2 64319 42.9995 228.1864 0001871 219.0339 141.0394 15.71010236 47030
Epoch: Apr 5, 2026 • Age: 9 hours

現在のステータス

高度 356.9 km
速度 7.70 km/s
衛星直下点 28.07°N, 149.93°E
打ち上げ日 Jun 10, 2025
運用期間 0.8 years
タイプ internet

技術仕様

分類 Payload
質量 960.00 kg
乾燥質量 910.00 kg
総質量 960.00 kg
長さ 0.30 m
直径 4.10 m
スパン 29.00 m
形状 Box + pan
製造者 SPXS
バスタイプ Starlink V2MD
フェーズステータス In Orbit
所有者/国 SPXS/US

大規模コンステレーション

Loading constellations...